This demonstration page uses our WeatherBlox Daily Observations layout. Learn more.

41.55636, -103.73856

Hourly Observations for December 8, 2019

Temp ( °F °C ) Dew Point ( °F °C ) Humidity (%) Winds ( mph kmh ) Pressure ( in mb ) Visibility ( mi km ) Precip ( " mm )
12:58 am 00:58 Clear 42 5.6 28 -2.4 57 57 NW 15 24 29.89 1012 10 16.0934 0 0
1:58 am 01:58 Clear 40 4.4 28 -2.2 63 63 NNW 7 11 29.94 1014 10 16.0934 0 0
2:58 am 02:58 Clear 41 5 28 -2.5 59 59 W 6 9 29.94 1014 10 16.0934 0 0
3:58 am 03:58 Clear 38 3.4 27 -2.6 65 65 WSW 5 7 29.93 1014 10 16.0934 0 0
4:58 am 04:58 Clear 43 6.1 26 -3.4 51 51 W 3 6 29.91 1013 10 16.0934 0 0
5:58 am 05:58 Clear 40 4.5 26 -3.4 57 57 W 9 15 29.9 1013 10 16.0934 0 0
6:58 am 06:58 Mostly Cloudy 39 4 27 -2.9 61 61 WSW 10 17 29.88 1012 10 16.0934 0 0
7:58 am 07:58 Mostly Cloudy 39 3.8 27 -2.9 62 62 W 5 7 29.87 1011 10 16.0934 0 0
8:58 am 08:58 Mostly Cloudy 38 3.2 27 -2.8 65 65 Calm 29.88 1012 10 16.0934 0 0
9:58 am 09:58 Mostly Cloudy 39 3.8 26 -3.1 61 61 SW 5 7 29.84 1010 10 16.0934 0 0
10:58 am 10:58 Cloudy 38 3.3 26 -3.2 63 63 Calm 29.83 1010 10 16.0934 0 0
11:58 am 11:58 Mostly Cloudy 36 2.4 27 -2.8 69 69 S 6 9 29.81 1009 10 16.0934 0 0
12:58 pm 12:58 Mostly Cloudy 38 3.6 27 -2.6 64 64 S 12 19 29.82 1010 10 16.0934 0 0
1:58 pm 13:58 Mostly Cloudy 38 3.1 28 -2.1 69 69 SSW 14 22 29.82 1010 10 16.0934 0 0
2:58 pm 14:58 Partly Cloudy 38 3.3 29 -1.9 69 69 SW 14 22 29.81 1009 10 16.0934 0 0
3:58 pm 15:58 Sunny 41 4.9 29 -1.8 62 62 SSW 15 24 29.8 1009 10 16.0934 0 0
4:58 pm 16:58 Partly Cloudy 42 5.6 29 -1.5 61 61 SW 9 15 29.77 1008 10 16.0934 0 0
5:58 pm 17:58 Mostly Cloudy 49 9.2 29 -1.4 48 48 SW 12 19 29.72 1007 10 16.0934 0 0
6:58 pm 18:58 Mostly Cloudy 51 10.4 26 -3.2 39 39 SW 14 22 29.68 1005 10 16.0934 0 0
7:58 pm 19:58 Sunny 50 10.2 27 -2.8 40 40 SSW 13 20 29.64 1004 10 16.0934 0 0
8:58 pm 20:58 Sunny 53 11.5 29 -1.9 40 40 SSW 9 15 29.61 1003 10 16.0934 0 0
9:58 pm 21:58 Partly Cloudy 52 10.9 30 -1 44 44 SSW 3 6 29.6 1002 10 16.0934 0 0
10:58 pm 22:58 Mostly Cloudy 47 8.5 30 -1 52 52 W 6 9 29.62 1003 10 16.0934 0 0
11:58 pm 23:58 Mostly Cloudy 43 6.3 30 -1 60 60 WSW 10 17 29.63 1004 10 16.0934 0 0

Powered by AerisWeather